Terug naar catalogus

STARLINK-5734

ActiefCommunicatieVLEO
NORAD 55612·PAYLOAD·🇺🇸 United States

Gelanceerd Feb 12, 2023 vanaf Cape Canaveral Space Force Station

Loading…

Volgende Passages (komende 24 uur)

TLE

VersSource: CelesTrak SupGP

Epoch: Sep 15, 2026, 02:03 UTC

1 55612C 23020AV  26258.08590278 -.00012972  00000+0 -46982-3 0  2580
2 55612  43.0025   5.0239 0001933 269.0802 329.6057 15.27586524    15

Volg STARLINK-5734 in realtime met AllMySat

Download on the App Store